• In Russia
  • List of Countries
  • For 7 days
  • Water Temperature
  • Satellite Maps
  • Weather Map
  • Weather Widgets
  • user-avatar
    Login

    Hourly Weather Kika

    Today, 25 September, Tuesday

    Time Temperature Precipitation Wind Pressure Humidity
    00:00 +8°C° 0 mm 1 mps 715 mmHg 69%
    01:00 +8°C° 0 mm 1 mps 715 mmHg 69%
    02:00 +7°C° 0 mm 1 mps 715 mmHg 69%
    03:00 +7°C° 0 mm 1 mps 715 mmHg 70%
    04:00 +7°C° 0 mm 1 mps 715 mmHg 71%
    05:00 +8°C° 0 mm 1 mps 715 mmHg 68%
    06:00 +8°C° 0 mm 1 mps 715 mmHg 66%
    07:00 +9°C° 0 mm 1 mps 716 mmHg 60%
    08:00 +12°C° 0 mm 1 mps 715 mmHg 54%
    09:00 +14°C° 0 mm 2 mps 715 mmHg 48%
    10:00 +16°C° 0 mm 2 mps 715 mmHg 42%
    11:00 +17°C° 0 mm 2 mps 715 mmHg 41%
    12:00 +18°C° 0 mm 2 mps 715 mmHg 40%
    13:00 +19°C° 0 mm 2 mps 714 mmHg 38%
    14:00 +19°C° 0 mm 2 mps 714 mmHg 41%
    15:00 +19°C° 0 mm 2 mps 714 mmHg 43%
    16:00 +18°C° 0 mm 2 mps 714 mmHg 46%
    17:00 +16°C° 0 mm 2 mps 714 mmHg 52%
    18:00 +14°C° 0 mm 2 mps 713 mmHg 59%
    19:00 +12°C° 0 mm 2 mps 713 mmHg 65%
    20:00 +10°C° 0 mm 2 mps 713 mmHg 66%
    21:00 +10°C° 0 mm 2 mps 713 mmHg 67%
    22:00 +9°C° 0 mm 2 mps 713 mmHg 67%
    23:00 +9°C° 0 mm 2 mps 713 mmHg 68%

    Tomorrow, 26 September, Wednesday

    Time Temperature Precipitation Wind Pressure Humidity
    00:00 +9°C° 0 mm 2 mps 713 mmHg 69%
    01:00 +9°C° 0 mm 2 mps 713 mmHg 70%
    02:00 +8°C° 0 mm 2 mps 713 mmHg 71%
    03:00 +9°C° 0 mm 1 mps 712 mmHg 71%
    04:00 +9°C° 0 mm 1 mps 712 mmHg 72%
    05:00 +10°C° 0 mm 1 mps 712 mmHg 70%
    06:00 +10°C° 0 mm 1 mps 712 mmHg 69%
    07:00 +11°C° 0 mm 1 mps 712 mmHg 68%
    08:00 +13°C° 0 mm 1 mps 712 mmHg 61%
    09:00 +15°C° 0 mm 1 mps 712 mmHg 54%
    10:00 +18°C° 0 mm 1 mps 712 mmHg 47%
    11:00 +18°C° 0.2 mm 1 mps 712 mmHg 50%
    12:00 +18°C° 0.2 mm 2 mps 712 mmHg 52%
    13:00 +18°C° 0.2 mm 2 mps 711 mmHg 55%
    14:00 +16°C° 1.4 mm 2 mps 711 mmHg 67%
    15:00 +13°C° 1.4 mm 2 mps 711 mmHg 78%
    16:00 +10°C° 1.4 mm 2 mps 711 mmHg 90%
    17:00 +9°C° 0.7 mm 2 mps 711 mmHg 91%
    18:00 +9°C° 0.7 mm 3 mps 712 mmHg 92%
    19:00 +8°C° 0.7 mm 3 mps 712 mmHg 92%
    20:00 +8°C° 0.3 mm 3 mps 712 mmHg 92%
    21:00 +8°C° 0.3 mm 2 mps 712 mmHg 91%
    22:00 +7°C° 0.3 mm 2 mps 712 mmHg 91%
    23:00 +7°C° 0 mm 2 mps 712 mmHg 91%

    Day after tomorrow, 27 September, Thursday

    Time Temperature Precipitation Wind Pressure Humidity
    00:00 +7°C° 0 mm 3 mps 712 mmHg 92%
    01:00 +7°C° 0 mm 3 mps 712 mmHg 93%
    02:00 +7°C° 0.1 mm 3 mps 712 mmHg 92%
    03:00 +7°C° 0.1 mm 3 mps 712 mmHg 91%
    04:00 +5°C° 0.1 mm 4 mps 712 mmHg 90%
    05:00 +5°C° 0.1 mm 4 mps 713 mmHg 89%
    06:00 +5°C° 0.1 mm 4 mps 713 mmHg 88%
    07:00 +4°C° 0.1 mm 4 mps 713 mmHg 87%
    08:00 +4°C° 0.1 mm 4 mps 713 mmHg 85%
    09:00 +3°C° 0.1 mm 5 mps 713 mmHg 82%
    10:00 +3°C° 0.1 mm 5 mps 713 mmHg 79%
    11:00 +5°C° 0.1 mm 5 mps 713 mmHg 76%
    12:00 +5°C° 0.1 mm 4 mps 713 mmHg 73%
    13:00 +5°C° 0.1 mm 4 mps 713 mmHg 70%
    14:00 +5°C° 0 mm 4 mps 712 mmHg 69%
    15:00 +5°C° 0 mm 4 mps 712 mmHg 69%
    16:00 +5°C° 0 mm 4 mps 712 mmHg 69%
    17:00 +5°C° 0.1 mm 4 mps 712 mmHg 73%
    18:00 +4°C° 0.1 mm 4 mps 712 mmHg 78%
    19:00 +4°C° 0.1 mm 4 mps 712 mmHg 82%
    20:00 +3°C° 0.3 mm 5 mps 712 mmHg 84%
    21:00 +3°C° 0.3 mm 5 mps 711 mmHg 85%
    22:00 +3°C° 0.3 mm 5 mps 711 mmHg 87%
    23:00 +3°C° 0.8 mm 6 mps 711 mmHg 88%

    28 September, Friday

    Time Temperature Precipitation Wind Pressure Humidity
    00:00 +3°C° 0.8 mm 6 mps 710 mmHg 89%
    01:00 +3°C° 0.8 mm 6 mps 710 mmHg 89%
    02:00 +3°C° 0.8 mm 6 mps 710 mmHg 90%
    03:00 +3°C° 0.8 mm 6 mps 710 mmHg 90%
    04:00 +3°C° 0.8 mm 5 mps 710 mmHg 91%
    05:00 +3°C° 0.6 mm 5 mps 710 mmHg 91%
    06:00 +3°C° 0.6 mm 5 mps 710 mmHg 90%
    07:00 +3°C° 0.6 mm 5 mps 711 mmHg 90%
    08:00 +4°C° 0.5 mm 4 mps 711 mmHg 90%
    09:00 +5°C° 0.5 mm 4 mps 711 mmHg 89%
    10:00 +5°C° 0.5 mm 3 mps 712 mmHg 89%
    11:00 +5°C° 0.7 mm 3 mps 712 mmHg 89%
    12:00 +5°C° 0.7 mm 3 mps 713 mmHg 88%
    13:00 +7°C° 0.7 mm 3 mps 713 mmHg 88%
    14:00 +6°C° 0.4 mm 2 mps 714 mmHg 88%
    15:00 +6°C° 0.4 mm 2 mps 715 mmHg 89%
    16:00 +6°C° 0.4 mm 2 mps 716 mmHg 89%
    17:00 +6°C° 0.3 mm 2 mps 716 mmHg 91%
    18:00 +6°C° 0.3 mm 2 mps 717 mmHg 93%
    19:00 +6°C° 0.3 mm 1 mps 718 mmHg 95%
    20:00 +6°C° 0.2 mm 1 mps 718 mmHg 95%
    21:00 +5°C° 0.2 mm 2 mps 718 mmHg 95%
    22:00 +5°C° 0.2 mm 2 mps 719 mmHg 96%
    23:00 +5°C° 0.3 mm 2 mps 719 mmHg 96%

    29 September, Saturday

    Time Temperature Precipitation Wind Pressure Humidity
    00:00 +5°C° 0.3 mm 2 mps 719 mmHg 95%
    01:00 +5°C° 0.3 mm 2 mps 719 mmHg 95%
    02:00 +5°C° 0.2 mm 2 mps 720 mmHg 96%
    03:00 +5°C° 0.2 mm 2 mps 720 mmHg 96%
    04:00 +5°C° 0.2 mm 2 mps 720 mmHg 96%
    05:00 +6°C° 0 mm 2 mps 721 mmHg 96%
    06:00 +6°C° 0 mm 2 mps 721 mmHg 95%
    07:00 +6°C° 0 mm 2 mps 722 mmHg 95%
    08:00 +7°C° 0 mm 2 mps 722 mmHg 92%
    09:00 +10°C° 0 mm 1 mps 722 mmHg 88%
    10:00 +11°C° 0 mm 1 mps 722 mmHg 85%
    11:00 +12°C° 0 mm 1 mps 722 mmHg 82%
    12:00 +13°C° 0 mm 1 mps 722 mmHg 79%
    13:00 +14°C° 0 mm 1 mps 722 mmHg 76%
    14:00 +14°C° 0 mm 1 mps 721 mmHg 78%
    15:00 +13°C° 0 mm 1 mps 721 mmHg 79%
    16:00 +13°C° 0 mm 1 mps 721 mmHg 81%
    17:00 +11°C° 0 mm 1 mps 722 mmHg 85%
    18:00 +9°C° 0 mm 1 mps 722 mmHg 90%
    19:00 +8°C° 0 mm 1 mps 722 mmHg 95%
    20:00 +7°C° 0 mm 1 mps 722 mmHg 95%
    21:00 +7°C° 0 mm 1 mps 722 mmHg 95%
    22:00 +7°C° 0 mm 1 mps 722 mmHg 95%
    23:00 +7°C° 0 mm 1 mps 722 mmHg 95%

    30 September, Sunday

    Time Temperature Precipitation Wind Pressure Humidity
    00:00 +6°C° 0 mm 1 mps 722 mmHg 94%
    01:00 +6°C° 0 mm 1 mps 721 mmHg 94%
    02:00 +6°C° 0 mm 1 mps 721 mmHg 94%
    03:00 +6°C° 0 mm 1 mps 721 mmHg 95%
    04:00 +6°C° 0 mm 1 mps 721 mmHg 95%
    05:00 +6°C° 0 mm 1 mps 721 mmHg 93%
    06:00 +7°C° 0 mm 1 mps 721 mmHg 92%
    07:00 +7°C° 0 mm 1 mps 721 mmHg 91%
    08:00 +9°C° 0 mm 1 mps 721 mmHg 85%
    09:00 +11°C° 0 mm 1 mps 721 mmHg 79%
    10:00 +13°C° 0 mm 1 mps 720 mmHg 73%
    11:00 +14°C° 0 mm 1 mps 720 mmHg 70%
    12:00 +15°C° 0 mm 1 mps 720 mmHg 67%
    13:00 +16°C° 0 mm 1 mps 719 mmHg 64%
    14:00 +15°C° 0 mm 1 mps 719 mmHg 67%
    15:00 +14°C° 0 mm 1 mps 719 mmHg 70%
    16:00 +14°C° 0 mm 1 mps 719 mmHg 72%
    17:00 +12°C° 0 mm 1 mps 719 mmHg 78%
    18:00 +10°C° 0 mm 1 mps 719 mmHg 84%
    19:00 +8°C° 0 mm 1 mps 719 mmHg 89%
    20:00 +8°C° 0 mm 1 mps 719 mmHg 89%
    21:00 +7°C° 0 mm 1 mps 719 mmHg 88%
    22:00 +7°C° 0 mm 1 mps 719 mmHg 88%
    23:00 +7°C° 0 mm 1 mps 719 mmHg 88%
    Show more